Regional Weather Roundup
Issued by NWS

Home | Current Version | Previous Version | Text Only | Print | Product List | Glossary On
Versions: 1 2 3 4 5 6 7 8 9 10 11 12 13 14 15 16 17 18 19 20 21 22 23 24 25 26 27 28 29 30 31 32 33 34 35 36 37 38 39 40 41 42 43 44 45 46 47 48 49 50
000
ASUS46 KPQR 251210
RWROR

OREGON REGIONAL WEATHER ROUNDUP
NATIONAL WEATHER SERVICE PORTLAND OR
500 AM PDT SUN SEP 25 2016

NOTE: "FAIR" INDICATES FEW OR NO CLOUDS BELOW 12,000 FEET WITH
NO SIGNIFICANT WEATHER AND/OR OBSTRUCTIONS TO VISIBILITY.

ORZ001>013-251300-
NORTHWEST OREGON


CITY           SKY/WX    TMP DP  RH WIND       PRES   REMARKS
ASTORIA        CLOUDY    60  54  80 SE3       30.35S
6HR MIN TEMP:  59; 6HR MAX TEMP:  62;

NEWPORT        CLEAR     55  46  71 E8        30.35F
PORTLAND       CLEAR     50  48  93 S3        30.37F
6HR MIN TEMP:  50; 6HR MAX TEMP:  57;

VANCOUVER WA   CLEAR     52  49  89 CALM      30.36F
6HR MIN TEMP:  50; 6HR MAX TEMP:  58;

SCAPPOOSE      CLEAR     52  49  89 W3        30.37S
6HR MIN TEMP:  50; 6HR MAX TEMP:  56;

HILLSBORO      CLEAR     48  47  96 NW3       30.37S
6HR MIN TEMP:  47; 6HR MAX TEMP:  55;

AURORA         CLEAR     51  46  83 CALM      30.37S
6HR MIN TEMP:  50; 6HR MAX TEMP:  57;

MCMINNVILLE    CLEAR     50  44  80 NW3       30.37S
6HR MIN TEMP:  47; 6HR MAX TEMP:  56;

SALEM          CLEAR     49  45  86 CALM      30.35S
6HR MIN TEMP:  48; 6HR MAX TEMP:  55;

CORVALLIS        N/A     46  41  81 CALM      30.37S
EUGENE         CLEAR     47  42  83 CALM      30.35F
6HR MIN TEMP:  47; 6HR MAX TEMP:  58;

$$

ORZ021-028-251300-
SOUTHWEST OREGON


CITY           SKY/WX    TMP DP  RH WIND       PRES   REMARKS
NORTH BEND       N/A     54  52  94 NE3       30.30S
6HR MIN TEMP:  52; 6HR MAX TEMP:  55;

BROOKINGS      CLEAR     65  46  50 CALM      30.18F
ROSEBURG       CLEAR     52  46  80 CALM      30.34S
6HR MIN TEMP:  52; 6HR MAX TEMP:  60;

SEXTON SUMMIT  CLEAR     59  39  47 N6        30.38S
6HR MIN TEMP:  59; 6HR MAX TEMP:  62;

MEDFORD        CLEAR     51  43  74 CALM      30.34S
6HR MIN TEMP:  50; 6HR MAX TEMP:  59;

$$

ORZ014>016-041-251300-
COLUMBIA GORGE


CITY           SKY/WX    TMP DP  RH WIND       PRES   REMARKS
TROUTDALE      CLEAR     49  47  93 CALM      30.37S
6HR MIN TEMP:  49; 6HR MAX TEMP:  55;

THE DALLES     CLEAR     53  43  68 CALM      30.38R
6HR MIN TEMP:  50; 6HR MAX TEMP:  61;

$$

ORZ029>031-041-044-049-050-061>064-502-503-505>511-251300-
EASTERN OREGON


CITY           SKY/WX    TMP DP  RH WIND       PRES   REMARKS
REDMOND        CLEAR     42  19  39 SE3       30.43S
6HR MIN TEMP:  40; 6HR MAX TEMP:  47;

BEND           CLEAR     46  30  53 SW6       30.43S
PRINEVILLE     CLEAR     37  19  48 CALM      30.44R
KLAMATH FALLS  PTCLDY    37  34  89 CALM      30.43R
6HR MIN TEMP:  37; 6HR MAX TEMP:  48;

LAKEVIEW       CLEAR     45  21  39 NE3       30.47S
HERMISTON      CLEAR     45  38  76 SE5       30.37S
6HR MIN TEMP:  44; 6HR MAX TEMP:  52;

PENDLETON      CLEAR     47  37  68 SE9       30.38S
6HR MIN TEMP:  47; 6HR MAX TEMP:  51;

JOHN DAY       CLEAR     44  31  60 E10       30.47S
MEACHAM        CLEAR     31  27  85 CALM      30.44R
6HR MIN TEMP:  31; 6HR MAX TEMP:  37;

LA GRANDE      CLEAR     36  25  64 CALM      30.44S
6HR MIN TEMP:  36; 6HR MAX TEMP:  46;

BAKER CITY     CLEAR     32  28  85 CALM      30.45S
6HR MIN TEMP:  31; 6HR MAX TEMP:  45;

BURNS          PTCLDY    35  22  58 NW7       30.47R WCI  29
6HR MIN TEMP:  31; 6HR MAX TEMP:  47;

ROME             N/A     37  24  59 SE3       30.44R
6HR MIN TEMP:  36; 6HR MAX TEMP:  49;

ONTARIO        CLEAR     41  34  76 CALM      30.44R
6HR MIN TEMP:  41; 6HR MAX TEMP:  48;

$$



USA.gov is the U.S. government's official web portal to all federal, state and local government web resources and services.